Location: Pinhead Observatory
(34.4473°N, 118.1985°W)
Time: 18:30:52
(UTC-07:00)

Daily predictions for brighter satellites

Satellite Brightness Start Highest point End
(mag) Time Altitude Azimuth Time Altitude Azimuth Time Altitude Azimuth
FengYun 1-2 T 4.5 19:47:08 10° SSE 19:52:37 55° ENE 19:58:06 10° N
Cosmos 1536 2.9 19:50:02 10° S 19:53:54 53° E 19:57:49 10° NNE
Cosmos 1346 Rocket 4.5 19:58:13 10° NE 20:00:43 16° ENE 20:03:15 10° ESE
CZ-4B DEB 3.0 20:01:28 10° SSE 20:04:39 52° ENE 20:07:51 10° N
Meteor 2-21 4.5 19:59:29 10° S 20:05:38 70° E 20:11:47 10° NNE
METEOR-M 4.3 20:01:16 10° S 20:06:36 80° WSW 20:11:58 10° NNW
Helios 1B rocket 4.0 20:05:47 10° N 20:09:40 41° WNW 20:13:32 10° SW
Resurs 1-3 3.7 20:05:44 10° SSE 20:10:07 86° WSW 20:14:32 10° NNW
ATLAS 2AS CENTAUR R/B 4.3 20:05:07 10° NW 20:12:21 40° WSW 20:19:04 10° S
Tiangong 1 2.7 20:10:03 10° W 20:12:52 32° NNW 20:15:42 10° NE
Cosmos 1633 2.8 20:09:53 10° S 20:13:33 76° W 20:17:13 10° N
Cosmos 1892 Rocket 4.0 20:10:07 10° N 20:14:22 42° E 20:18:36 10° SSE
Helios 1A 3.9 20:12:02 10° S 20:16:04 51° W 20:20:09 10° NNW
Cosmos 1455 Rocket 3.4 20:13:39 10° SSE 20:17:41 40° E 20:21:45 10° NNE
Meteor 1-19 Rocket 4.3 20:15:10 10° N 20:20:51 83° W 20:26:25 10° S
Resurs 01 Rocket 2.8 20:18:23 10° S 20:22:36 44° W 20:26:51 10° NNW
Cosmos 1025 Rocket 3.0 20:19:15 10° N 20:23:38 88° W 20:27:57 10° S
USA 186 2.0 20:21:15 11° SSE 20:24:12 45° ENE 20:27:09 10° N
Meteor 1-5 Rocket 4.1 20:19:09 10° S 20:24:21 62° E 20:29:40 10° NNE
Cosmos 2239 Rocket 4.5 20:18:26 10° S 20:24:41 88° E 20:30:55 10° N
Cosmos 968 Rocket 3.5 20:19:35 10° NNW 20:24:45 87° WSW 20:29:51 10° SSE
Cosmos 2227 Rocket 3.3 20:20:33 10° N 20:25:13 26° ENE 20:28:22 16° ESE
Meteor 2-14 Rocket 4.4 20:19:32 10° S 20:25:38 72° E 20:31:46 10° N
OTV 4 1.5 20:26:04 10° WNW 20:28:53 38° N 20:31:01 15° ENE
Myojo/LAPS 3.9 20:27:52 10° SW 20:30:06 23° S 20:30:49 20° SSE
ERS-1 Rocket 3.9 20:27:20 17° ESE 20:30:19 29° ENE 20:34:37 10° N
Okean 2 3.5 20:26:25 10° N 20:30:31 54° E 20:34:21 11° SSE
FENGYUN 3A 3.6 20:27:15 10° SSE 20:32:36 87° ENE 20:37:58 10° NNW
OAO 2 Rocket 3.6 20:28:51 10° SW 20:33:43 50° SSE 20:37:15 18° E
ATLAS 3B CENTAUR R/B 2.0 20:34:06 10° SW 20:34:55 14° SSW 20:34:55 14° SSW
Cosmos 1975 3.7 20:35:02 20° SE 20:37:00 30° E 20:40:36 10° NNE
Cosmos 1934 Rocket 3.9 20:31:19 10° S 20:37:24 86° E 20:43:37 10° N
GOES 2 Rocket 4.2 20:34:14 10° WSW 20:37:54 29° S 20:40:12 19° SE
Cosmos 1656 4.4 20:35:03 10° SSE 20:39:54 30° ESE 20:44:43 10° NE
ATLAS 2A CENTAUR R/B 3.1 20:39:03 10° WSW 20:40:53 12° SW 20:42:09 10° S
Cosmos 2297 Rocket 3.4 20:36:39 10° N 20:41:15 25° ENE 20:43:23 20° E
EP 1 3.9 20:38:48 10° SSW 20:41:23 77° ESE 20:43:52 10° NNE
Cosmos 1461 4.4 20:38:49 10° N 20:41:50 20° NE 20:42:47 18° ENE
Centaur AC-125 4.5 20:15:27 10° WSW 20:48:14 55° S 20:51:56 25° ESE
Cosmos 1544 Rocket 4.3 20:46:53 10° SSW 20:51:08 53° W 20:55:26 10° N
Lacrosse 5 rocket 3.3 20:50:43 10° N 20:52:24 13° NE 20:53:07 12° NE
Delta 2 Rocket 3.9 20:47:01 10° W 20:52:35 80° N 20:55:17 28° E
BREEZE-M DEB (TANK) 4.5 20:29:52 10° SW 20:52:44 83° SE 20:58:09 10° ENE
Cosmos 1777 Rocket 4.2 20:53:35 10° NNW 20:58:49 73° WSW 21:02:58 17° S
Meteor 1-12 Rocket 4.2 20:54:30 10° S 21:00:08 72° E 21:05:54 10° NNE
Cosmos 2208 Rocket 4.5 20:57:18 10° SSW 21:02:31 64° WNW 21:07:52 10° N
Cosmos 1939 Rocket 3.1 21:05:19 47° ESE 21:05:56 52° ENE 21:09:58 10° N
H-2A R/B 4.5 21:06:16 10° SSW 21:09:42 31° W 21:13:12 10° NNW
ALOS 3.9 21:05:46 10° SSW 21:09:57 32° W 21:14:09 10° NNW
Cosmos 2278 4.3 21:10:22 10° SW 21:15:56 59° WNW 21:21:33 10° NNE
Cosmos 2173 Rocket 4.3 21:14:44 37° SE 21:16:29 46° E 21:22:29 10° NNE
Cosmos 1697 Rocket 2.8 21:17:01 40° SSE 21:18:25 49° ESE 21:23:51 10° NNE
Cosmos 2061 Rocket 4.2 21:16:57 39° SE 21:18:36 47° E 21:24:35 10° NNE
Cosmos 1605 Rocket 4.4 21:12:22 10° SSW 21:18:40 63° W 21:24:56 10° N
YAOGAN 11 4.3 21:17:45 34° S 21:19:40 73° WSW 21:24:11 10° NNW
Lacrosse 5 3.9 21:18:05 10° N 21:20:56 15° NNE 21:22:12 14° NE
SPOT 5 3.3 21:22:12 44° E 21:22:27 45° ENE 21:27:11 10° N
Cosmos 2100 Rocket 4.0 21:21:22 37° SSE 21:23:42 58° E 21:29:49 10° NNE
Envisat 2.9 21:28:27 53° SSE 21:29:41 87° ENE 21:34:47 10° NNW
Hubble Space Telescope 2.5 21:30:01 10° WSW 21:32:23 24° SW 21:32:23 24° SW
NOSS 3-4 (A) 3.9 21:31:04 10° NW 21:38:11 73° WSW 21:41:07 40° SSE
NOSS 3-4 (C) 3.9 21:31:11 10° NW 21:38:18 74° WSW 21:41:12 40° SSE
DELTA 2 R/B (1) 4.1 21:33:10 10° WNW 21:38:37 53° N 21:39:58 43° NE
SPOT 1/Viking Rocket 4.4 21:39:37 35° NE 21:39:37 35° NE 21:43:35 10° N
Cosmos 1937 Rocket 4.4 21:34:33 10° N 21:38:37 34° NE 21:38:37 34° NE
Cosmos 1980 Rocket 3.5 21:42:25 26° NE 21:42:25 26° NE 21:45:00 10° NE
Cosmos 2150 Rocket 4.4 21:36:18 10° N 21:40:45 47° NE 21:40:45 47° NE
H-2A R/B 2.5 21:46:32 55° NNW 21:46:32 55° NNW 21:49:49 10° NNW
ARGOS 3.9 21:49:44 38° NE 21:49:44 38° NE 21:53:48 10° N
SL-19 R/B 4.4 21:44:15 10° NNE 21:48:37 53° NE 21:48:37 53° NE
deb Chang Zheng 4 4.3 21:45:29 10° N 21:49:50 54° WNW 21:50:42 46° WSW
Tiangong 1 4.0 21:47:49 10° NW 21:49:04 15° NNW 21:49:04 15° NNW
ASTEX 1 3.8 21:55:18 10° N 21:59:13 56° N 21:59:13 56° N
Cosmos 972 Rocket 4.4 21:55:48 10° N 22:01:34 72° ENE 22:01:34 72° ENE
Milstar 3 Cent rocket 3.7 21:46:21 10° W 22:04:36 65° S 22:06:58 53° SE
OTV 4 4.1 22:02:31 10° WNW 22:02:33 10° WNW 22:02:33 10° WNW
Cosmos 1459 Rocket 4.2 22:05:26 47° SW 22:07:00 64° W 22:13:03 10° N
Cosmos 2227 Rocket 3.2 22:04:09 10° NW 22:09:19 38° WSW 22:10:13 35° SW
Cosmos 1898 Rocket 3.9 22:06:34 10° NNW 22:10:58 60° NW 22:10:58 60° NW
MetOp-B 4.4 22:12:24 64° WNW 22:12:24 64° WNW 22:17:14 10° NNW
Terra 4.0 22:14:41 16° NNE 22:14:41 16° NNE 22:15:56 10° NNE
Cosmos 2297 Rocket 3.2 22:20:09 10° NW 22:25:13 39° W 22:25:13 39° W
Lacrosse 5 rocket 4.2 22:28:22 10° NW 22:28:51 13° NW 22:28:51 13° NW
H-2A R/B 4.0 23:02:30 24° NNW 23:02:30 24° NNW 23:04:24 10° NNW
USA 215 3.8 23:01:12 54° NNW 23:01:12 54° NNW 23:06:09 10° NW
Lacrosse 5 4.1 22:59:33 10° NW 23:01:23 22° NW 23:01:23 22° NW
Cosmos 1980 Rocket 4.2 23:24:05 23° NW 23:24:05 23° NW 23:28:13 10° N
